SCP
0 0 0 0 0 0 0 0 0 0 1 2 2 2 1 1 1 1 1 1 1 1
0 0 0 0 0 0 0 0 0 0 0 0 2 2 1 1 1 1 1 1 1 1
0 0 0 0 0 0 0 0 0 0 0 0 1 1 1 1 1 1 1 1 1 1
0 0 0 0 0 0 0 0 0 1 1 1 1 0 0 1 1 1 1 1 1 1
0 0 0 0 0 0 0 0 0 0 0 0 0 0 0 0 0 0 0 0 1 1
0 0 0 0 0 0 0 0 0 0 0 0 0 0 0 0 0 0 0 0 1 1
0 0 0 0 0 0 0 0 0 0 0 0 0 0 0 0 0 0 0 0 0 0
0 0 0 0 0 0 0 0 0 0 0 0 0 0 0 0 0 0 0 0 0 0
0 0 0 0 0 0 0 0 0 0 0 0 0 0 0 0 0 0 0 0 0 0
0 0 0 0 0 0 0 0 0 0 0 0 0 0 0 0 0 0 0 0 0 0
0 0 0 0 0 0 0 0 0 0 0 0 0 0 0 -0 0 0 0 0 0 0
0 0 0 0 0 0 0 0 0 0 0 0 0 -0 -0 -0 -0 -0 -0 -0 -0 0
0 0 0 0 0 0 0 0 0 0 0 0 0 -0 -0 -0 -0 -0 -0 0 0 0
0 0 0 0 0 0 0 0 0 0 0 0 0 -0 -0 -0 -0 0 0 0 0 0
Wind_Speed_500mb
49 42 39 39 40 40 42 45 55 65 67 64 61 57 56 52 52 69 67 82 77 80
32 30 31 34 38 39 43 44 41 39 43 50 49 47 51 54 57 67 74 68 69 71
17 16 22 26 26 25 28 33 35 33 33 35 41 39 35 34 36 40 39 46 50 54
17 10 16 21 19 17 20 22 25 25 25 24 22 21 21 22 25 31 35 36 43 48
28 18 25 28 22 24 21 19 21 20 16 13 13 15 22 26 30 33 37 41 38 43
44 37 36 37 35 34 32 27 24 23 19 16 18 23 21 22 26 28 31 35 37 41
58 49 42 45 48 45 43 40 35 31 24 21 15 11 15 20 25 29 32 34 37 42
64 62 56 52 52 50 49 48 41 36 33 28 21 24 29 34 39 43 44 40 41 43
59 69 64 60 58 55 53 53 48 44 39 33 31 34 40 46 52 56 55 51 48 47
29 47 58 56 60 59 61 60 55 49 44 41 40 43 50 55 61 65 64 59 57 54
36 25 28 47 56 60 59 57 51 47 46 47 50 55 61 60 60 61 60 58 57 53
41 46 41 40 41 45 51 54 55 56 56 57 59 63 65 63 63 62 61 59 54 47
57 53 54 56 54 55 60 63 63 66 67 68 69 71 72 69 70 65 63 63 62 51
76 74 71 68 70 68 68 69 75 75 77 78 75 75 74 69 69 64 67 68 68 55
Wind_Direction_500mb
209 215 227 237 242 241 238 236 237 239 238 237 244 250 251 253 251 250 257 257 263 266
219 231 246 254 255 251 241 236 230 229 233 235 237 245 248 249 251 255 256 259 262 267
215 236 245 246 237 234 229 225 228 224 220 221 229 238 243 249 255 255 258 257 260 262
191 193 217 221 224 212 205 205 205 203 207 215 221 233 244 251 255 256 258 261 262 264
197 187 204 208 210 209 213 221 221 218 223 243 262 277 278 274 277 280 276 274 274 274
207 199 204 206 212 217 216 224 231 237 246 263 278 295 293 293 289 288 285 280 277 272
223 217 214 214 219 224 226 228 235 234 245 260 275 291 313 313 314 309 307 296 288 285
232 228 227 225 227 236 235 236 226 233 245 254 260 281 290 300 309 312 308 301 294 288
242 236 234 234 235 238 232 223 228 241 247 251 267 275 285 297 302 305 305 302 294 290
242 242 238 234 231 227 224 227 232 236 245 255 264 274 285 294 299 300 300 298 295 289
253 246 249 236 235 231 230 232 240 248 252 257 267 278 289 295 298 299 298 296 294 290
250 248 242 244 240 239 242 248 253 260 266 270 274 281 288 295 300 299 297 294 292 283
264 258 249 250 250 250 255 260 262 267 271 275 278 281 288 296 302 295 293 292 289 282
266 263 259 255 252 254 254 254 259 265 270 274 277 281 288 296 298 289 290 289 284 279
Wind_Speed_850mb
49 42 39 39 40 40 42 45 55 65 67 64 61 57 56 52 52 69 67 82 77 80
32 30 31 34 38 39 43 44 41 39 43 50 49 47 51 54 57 67 74 68 69 71
17 16 22 26 26 25 28 33 35 33 33 35 41 39 35 34 36 40 39 46 50 54
17 10 16 21 19 17 20 22 25 25 25 24 22 21 21 22 25 31 35 36 43 48
28 18 25 28 22 24 21 19 21 20 16 13 13 15 22 26 30 33 37 41 38 43
44 37 36 37 35 34 32 27 24 23 19 16 18 23 21 22 26 28 31 35 37 41
58 49 42 45 48 45 43 40 35 31 24 21 15 11 15 20 25 29 32 34 37 42
64 62 56 52 52 50 49 48 41 36 33 28 21 24 29 34 39 43 44 40 41 43
59 69 64 60 58 55 53 53 48 44 39 33 31 34 40 46 52 56 55 51 48 47
29 47 58 56 60 59 61 60 55 49 44 41 40 43 50 55 61 65 64 59 57 54
36 25 28 47 56 60 59 57 51 47 46 47 50 55 61 60 60 61 60 58 57 53
41 46 41 40 41 45 51 54 55 56 56 57 59 63 65 63 63 62 61 59 54 47
57 53 54 56 54 55 60 63 63 66 67 68 69 71 72 69 70 65 63 63 62 51
76 74 71 68 70 68 68 69 75 75 77 78 75 75 74 69 69 64 67 68 68 55
Wind_Direction_850mb
209 215 227 237 242 241 238 236 237 239 238 237 244 250 251 253 251 250 257 257 263 266
219 231 246 254 255 251 241 236 230 229 233 235 237 245 248 249 251 255 256 259 262 267
215 236 245 246 237 234 229 225 228 224 220 221 229 238 243 249 255 255 258 257 260 262
191 193 217 221 224 212 205 205 205 203 207 215 221 233 244 251 255 256 258 261 262 264
197 187 204 208 210 209 213 221 221 218 223 243 262 277 278 274 277 280 276 274 274 274
207 199 204 206 212 217 216 224 231 237 246 263 278 295 293 293 289 288 285 280 277 272
223 217 214 214 219 224 226 228 235 234 245 260 275 291 313 313 314 309 307 296 288 285
232 228 227 225 227 236 235 236 226 233 245 254 260 281 290 300 309 312 308 301 294 288
242 236 234 234 235 238 232 223 228 241 247 251 267 275 285 297 302 305 305 302 294 290
242 242 238 234 231 227 224 227 232 236 245 255 264 274 285 294 299 300 300 298 295 289
253 246 249 236 235 231 230 232 240 248 252 257 267 278 289 295 298 299 298 296 294 290
250 248 242 244 240 239 242 248 253 260 266 270 274 281 288 295 300 299 297 294 292 283
264 258 249 250 250 250 255 260 262 267 271 275 278 281 288 296 302 295 293 292 289 282
266 263 259 255 252 254 254 254 259 265 270 274 277 281 288 296 298 289 290 289 284 279